Tracking 17155 objects as of 29-July-2015
HD Live streaming from Space Station

SL-8 DEB

Track SL-8 DEB now!
10-day predictions
SL-8 DEB is classified as:


NORAD ID: 21250
Int'l Code: 1991-009BH
Perigee: 1,493.4 km
Apogee: 1,718.5 km
Inclination: 74.1 °
Period: 118.2 minutes
Semi major axis: 7976 km
RCS: 0.1024 m2 (medium)
Launch date: February 12, 1991
Source: Commonwealth of Independent States (former USSR) (CIS)

Note: This is SATELLITE DEBRIS
Your satellite tracking list
Your tracking list is empty





NASA's NSSDC Master Catalog

Two Line Element Set (TLE):
1 21250U 91009BH  15209.95821192 -.00000022  00000-0 -73675-4 0  9991
2 21250 074.0593 190.1269 0141077 204.0383 184.6165 12.18561698 85188

Source of the keplerian elements: AFSPC

N2YO: 313